User: anonymous   Login
Location: Naloco
(16.5478°S, 37.1017°E)
Time: 12:56:10
(UTC+00:00)
Language:

CZ-2D R/B - Orbit

View from above orbital plane
View from above orbital plane
View from above satellite
View from above satellite

Ground track
Ground track

The orbit data is extracted from the following two-line orbital elements,

1 28738U 05024B   20294.78460907 +.00000360 +00000-0 +24466-4 0  9992
2 28738 097.3766 313.1671 0013491 108.5264 251.7434 15.12123903840368
Epoch (UTC): 20 October 2020 18:49:50
Eccentricity: 0.0013491
inclination: 97.3766°
perigee height: 520 km
apogee height: 539 km
right ascension of ascending node: 313.1671°
argument of perigee: 108.5264°
revolutions per day: 15.12123903
mean anomaly at epoch: 251.7434°
orbit number at epoch: 84036

The dashed part of the orbit path shows where the satellite is in the earth's shadow,  

DLR